Home > Weather > Creighton > Past weeks

Flag for Canada Past Weather in Creighton, Saskatchewan, Canada — Yesterday and Last 2 Weeks

Now
54 °F

Overcast.


Feels Like: 50 °F
Forecast: 53 / 62 °F
Wind: 12 mph from West

Location: The Pas

Current Time: Aug 29, 2016 at 4:21:48 AM

Latest Report: Aug 29, 2016 at 4:00 AM


Visibility: 15 mi

Pressure: 30.03 "Hg

Humidity: 72%

Dew Point: 45 °F

Location of CreightonLocation

Past Weather in Creighton — Graph

°F

Creighton Temperature Yesterday

Maximum temperature yesterday: 75 °F (at 5:00 PM)
Minimum temperature yesterday: 54 °F (at 12:00 AM)
Average temperature yesterday: 64 °F

High & Low Weather Summary for the Past Weeks

 TemperatureHumidityPressure
High79 °F (Aug 16, 5:00 PM)100% (Aug 14, 4:00 AM)30.05 "Hg (Aug 14, 4:00 AM)
Low43 °F (Aug 20, 6:00 AM)35% (Aug 20, 3:00 PM)29.66 "Hg (Aug 22, 5:00 AM)
Average62 °F76%29.88 "Hg
* Reported Aug 14 3:00 AM — Aug 29 3:00 AM, Creighton, Weather by CustomWeather, © 2016

Note: Actual official high and low records may vary slightly from our data, if they occured in-between our weather recording intervals... More about our weather records

Advertising

Creighton Weather History for the Previous 24 Hours

Scroll right to see more
 ConditionsComfort  
Time TempWeatherWind HumidityBarometerVisibility
3:00 AM
Mon, Aug 29
54 °FOvercast.15 mph72%30.02 "Hg15 mi
2:00 AM54 °FClear.20 mph72%30.01 "Hg15 mi
1:00 AM55 °FClear.20 mph67%30.00 "Hg15 mi
12:00 AM57 °FClear.20 mph67%29.97 "Hg15 mi
11:00 PM
Sun, Aug 28
59 °FPassing clouds.15 mph72%29.95 "Hg15 mi
10:00 PM64 °FPassing clouds.13 mph73%29.90 "Hg15 mi
9:00 PM68 °FPassing clouds.12 mph64%29.86 "Hg15 mi
8:00 PM72 °FPassing clouds.9 mph57%29.83 "Hg15 mi
7:00 PM73 °FPassing clouds.13 mph57%29.81 "Hg15 mi
6:00 PM75 °FScattered showers. Scattered clouds.18 mph57%29.79 "Hg15 mi
5:00 PM75 °FBroken clouds.9 mph57%29.78 "Hg15 mi
4:00 PM73 °FPartly sunny.12 mph57%29.78 "Hg15 mi
3:00 PM72 °FBroken clouds.17 mph57%29.77 "Hg15 mi
2:00 PM70 °FBroken clouds.17 mph69%29.75 "Hg15 mi
1:00 PM66 °FSprinkles. Mostly cloudy.16 mph78%29.76 "Hg13 mi
12:00 PM66 °FSprinkles. Mostly cloudy.15 mph73%29.79 "Hg15 mi
11:47 AM64 °FSprinkles. Mostly cloudy.15 mph78%29.78 "Hg15 mi
11:00 AM64 °FSprinkles. Mostly cloudy.17 mph78%29.76 "Hg15 mi
10:00 AM63 °FSprinkles. Mostly cloudy.14 mph83%29.78 "Hg15 mi
9:00 AM63 °FMostly cloudy.14 mph83%29.78 "Hg15 mi
8:55 AM63 °FMostly cloudy.14 mph83%29.78 "Hg15 mi
8:00 AM61 °FMostly cloudy.12 mph94%29.79 "Hg15 mi
7:00 AM59 °FOvercast.9 mph94%29.80 "Hg15 mi
6:00 AM59 °FOvercast.13 mph94%29.80 "Hg15 mi
5:00 AM59 °FOvercast.9 mph94%29.82 "Hg15 mi
4:00 AM59 °FPassing clouds.10 mph94%29.83 "Hg15 mi
Weather by CustomWeather, © 2016

See weather overviewHow to use our weather pages